Torna al catalogo

COSMOS 675

AttivoMilitareLEO
NORAD 7424·PAYLOAD·🇷🇺 Russia

Lanciato Aug 29, 1974 da Plesetsk Cosmodrome

Loading…

Prossimi Passaggi (prossime 24 ore)

TLE

AggiornatoSource: Space-Track

Epoca: Sep 14, 2026, 13:06 UTC

1 07424U 74069A   26257.54611063 -.00000016  00000-0  15165-6 0  9993
2 07424  74.0560 101.8492 0038104 168.7076 219.7957 12.67187503407514

Traccia COSMOS 675 in tempo reale con AllMySat

Download on the App Store